Location: Guferjoch
(46.7462°N, 8.4506°E)
Time: 13:23:55
(UTC+00:00)

SL-16 R/B - Pass Details

Date: 14 July 2020
Orbit: 985 x 1006 km, 99.5° (Epoch: 07 August)

Event Time Altitude Azimuth Distance (km) Brightness Sun altitude
Exits shadow 01:57:01 20° 209° (SSW) 2,147 3.7 -14.2°
Maximum altitude 02:00:44 37° 264° (W) 1,526 3.2 -13.8°
Drops below altitude 10° 02:06:28 10° 330° (NNW) 2,791 5.2 -13.3°
Sets 02:09:12 0° 339° (NNW) 3,747 6.0 -13.0°
